• In Hungary
  • List of Countries
  • For 7 days
  • Water Temperature
  • Satellite Maps
  • Weather Map
  • News
  • Weather Widgets
  • user-avatar
    Login

    Hourly Weather Dachau

    Today, 22 July, Sunday

    Time Temperature Precipitation Wind Pressure Humidity
    00:00 +16°C° 0.3 mm 2 mps 717 mmHg 95%
    01:00 +16°C° 0.3 mm 2 mps 717 mmHg 96%
    02:00 +16°C° 0.1 mm 2 mps 717 mmHg 96%
    03:00 +16°C° 0.1 mm 2 mps 717 mmHg 96%
    04:00 +16°C° 0.1 mm 2 mps 717 mmHg 96%
    05:00 +16°C° 0.1 mm 3 mps 717 mmHg 95%
    06:00 +16°C° 0.1 mm 3 mps 717 mmHg 95%
    07:00 +17°C° 0.1 mm 3 mps 717 mmHg 94%
    08:00 +17°C° 0.3 mm 3 mps 717 mmHg 92%
    09:00 +18°C° 0.3 mm 3 mps 717 mmHg 91%
    10:00 +18°C° 0.3 mm 3 mps 717 mmHg 89%
    11:00 +19°C° 0.6 mm 3 mps 717 mmHg 88%
    12:00 +20°C° 0.6 mm 3 mps 717 mmHg 87%
    13:00 +20°C° 0.6 mm 3 mps 717 mmHg 85%
    14:00 +20°C° 0.5 mm 2 mps 717 mmHg 84%
    15:00 +21°C° 0.5 mm 2 mps 717 mmHg 82%
    16:00 +21°C° 0.5 mm 2 mps 717 mmHg 81%
    17:00 +21°C° 0.4 mm 2 mps 717 mmHg 82%
    18:00 +21°C° 0.4 mm 1 mps 717 mmHg 84%
    19:00 +21°C° 0.4 mm 1 mps 717 mmHg 86%
    20:00 +19°C° 0.3 mm 1 mps 718 mmHg 87%
    21:00 +18°C° 0.3 mm 1 mps 718 mmHg 88%
    22:00 +16°C° 0.3 mm 1 mps 718 mmHg 89%
    23:00 +16°C° 0 mm 1 mps 718 mmHg 89%

    Tomorrow, 23 July, Monday

    Time Temperature Precipitation Wind Pressure Humidity
    00:00 +15°C° 0 mm 0 mps 718 mmHg 88%
    01:00 +14°C° 0 mm 0 mps 718 mmHg 87%
    02:00 +15°C° 0 mm 1 mps 718 mmHg 87%
    03:00 +15°C° 0 mm 1 mps 718 mmHg 87%
    04:00 +15°C° 0 mm 1 mps 718 mmHg 87%
    05:00 +16°C° 0 mm 1 mps 719 mmHg 87%
    06:00 +16°C° 0 mm 1 mps 719 mmHg 87%
    07:00 +18°C° 0 mm 1 mps 719 mmHg 86%
    08:00 +20°C° 0.1 mm 1 mps 720 mmHg 81%
    09:00 +21°C° 0.1 mm 1 mps 720 mmHg 76%
    10:00 +23°C° 0.1 mm 1 mps 720 mmHg 70%
    11:00 +24°C° 0 mm 1 mps 720 mmHg 66%
    12:00 +25°C° 0 mm 1 mps 720 mmHg 61%
    13:00 +26°C° 0 mm 1 mps 720 mmHg 57%
    14:00 +26°C° 0.1 mm 1 mps 720 mmHg 58%
    15:00 +26°C° 0.1 mm 2 mps 720 mmHg 59%
    16:00 +26°C° 0.1 mm 2 mps 719 mmHg 60%
    17:00 +25°C° 0.2 mm 2 mps 720 mmHg 67%
    18:00 +24°C° 0.2 mm 2 mps 720 mmHg 73%
    19:00 +23°C° 0.2 mm 1 mps 720 mmHg 80%
    20:00 +22°C° 0 mm 1 mps 720 mmHg 83%
    21:00 +20°C° 0 mm 1 mps 720 mmHg 86%
    22:00 +17°C° 0 mm 0 mps 721 mmHg 89%
    23:00 +16°C° 0 mm 0 mps 720 mmHg 90%

    Day after tomorrow, 24 July, Tuesday

    Time Temperature Precipitation Wind Pressure Humidity
    00:00 +16°C° 0 mm 0 mps 720 mmHg 90%
    01:00 +15°C° 0 mm 0 mps 720 mmHg 91%
    02:00 +15°C° 0 mm 0 mps 720 mmHg 91%
    03:00 +15°C° 0 mm 0 mps 719 mmHg 92%
    04:00 +15°C° 0 mm 1 mps 719 mmHg 92%
    05:00 +18°C° 0 mm 1 mps 719 mmHg 90%
    06:00 +19°C° 0 mm 1 mps 719 mmHg 88%
    07:00 +20°C° 0 mm 1 mps 719 mmHg 86%
    08:00 +21°C° 0 mm 1 mps 719 mmHg 79%
    09:00 +23°C° 0 mm 2 mps 719 mmHg 72%
    10:00 +25°C° 0 mm 2 mps 719 mmHg 66%
    11:00 +26°C° 0 mm 2 mps 719 mmHg 63%
    12:00 +26°C° 0 mm 3 mps 719 mmHg 60%
    13:00 +27°C° 0 mm 3 mps 718 mmHg 57%
    14:00 +27°C° 0 mm 3 mps 718 mmHg 57%
    15:00 +27°C° 0 mm 3 mps 718 mmHg 58%
    16:00 +27°C° 0 mm 3 mps 718 mmHg 59%
    17:00 +26°C° 0 mm 3 mps 718 mmHg 64%
    18:00 +25°C° 0 mm 2 mps 718 mmHg 70%
    19:00 +24°C° 0 mm 2 mps 718 mmHg 76%
    20:00 +23°C° 0 mm 2 mps 718 mmHg 79%
    21:00 +21°C° 0 mm 1 mps 718 mmHg 83%
    22:00 +20°C° 0 mm 1 mps 718 mmHg 86%
    23:00 +19°C° 0 mm 1 mps 718 mmHg 87%

    25 July, Wednesday

    Time Temperature Precipitation Wind Pressure Humidity
    00:00 +18°C° 0 mm 1 mps 718 mmHg 88%
    01:00 +18°C° 0 mm 1 mps 718 mmHg 90%
    02:00 +18°C° 0 mm 1 mps 718 mmHg 90%
    03:00 +16°C° 0 mm 1 mps 718 mmHg 91%
    04:00 +16°C° 0 mm 1 mps 718 mmHg 92%
    05:00 +18°C° 0 mm 1 mps 718 mmHg 89%
    06:00 +19°C° 0 mm 1 mps 719 mmHg 86%
    07:00 +18°C° 0 mm 0 mps 719 mmHg 83%
    08:00 +22°C° 0 mm 1 mps 719 mmHg 76%
    09:00 +24°C° 0 mm 1 mps 719 mmHg 69%
    10:00 +26°C° 0 mm 2 mps 719 mmHg 62%
    11:00 +27°C° 0 mm 2 mps 719 mmHg 59%
    12:00 +27°C° 0 mm 2 mps 719 mmHg 56%
    13:00 +28°C° 0 mm 2 mps 719 mmHg 53%
    14:00 +28°C° 0 mm 2 mps 718 mmHg 53%
    15:00 +28°C° 0 mm 2 mps 718 mmHg 53%
    16:00 +29°C° 0 mm 2 mps 718 mmHg 53%
    17:00 +27°C° 0 mm 2 mps 718 mmHg 60%
    18:00 +26°C° 0 mm 2 mps 718 mmHg 66%
    19:00 +25°C° 0 mm 1 mps 718 mmHg 72%
    20:00 +23°C° 0 mm 1 mps 719 mmHg 77%
    21:00 +22°C° 0 mm 1 mps 719 mmHg 81%
    22:00 +20°C° 0 mm 1 mps 719 mmHg 86%
    23:00 +20°C° 0 mm 1 mps 719 mmHg 88%

    26 July, Thursday

    Time Temperature Precipitation Wind Pressure Humidity
    00:00 +19°C° 0 mm 1 mps 719 mmHg 90%
    01:00 +19°C° 0 mm 1 mps 719 mmHg 91%
    02:00 +19°C° 0 mm 1 mps 719 mmHg 92%
    03:00 +18°C° 0 mm 1 mps 719 mmHg 93%
    04:00 +18°C° 0 mm 1 mps 719 mmHg 93%
    05:00 +19°C° 0 mm 1 mps 719 mmHg 90%
    06:00 +20°C° 0 mm 1 mps 719 mmHg 87%
    07:00 +21°C° 0 mm 1 mps 720 mmHg 84%
    08:00 +23°C° 0 mm 1 mps 720 mmHg 78%
    09:00 +25°C° 0 mm 2 mps 720 mmHg 71%
    10:00 +26°C° 0 mm 2 mps 720 mmHg 65%
    11:00 +27°C° 0 mm 2 mps 720 mmHg 61%
    12:00 +28°C° 0 mm 3 mps 720 mmHg 57%
    13:00 +29°C° 0 mm 3 mps 719 mmHg 54%
    14:00 +29°C° 0 mm 3 mps 719 mmHg 54%
    15:00 +29°C° 0 mm 3 mps 719 mmHg 55%
    16:00 +29°C° 0 mm 3 mps 719 mmHg 55%
    17:00 +27°C° 0 mm 3 mps 719 mmHg 61%
    18:00 +26°C° 0 mm 2 mps 719 mmHg 67%
    19:00 +25°C° 0 mm 2 mps 719 mmHg 73%
    20:00 +24°C° 0 mm 1 mps 720 mmHg 76%
    21:00 +22°C° 0 mm 1 mps 720 mmHg 80%
    22:00 +21°C° 0 mm 1 mps 720 mmHg 83%
    23:00 +20°C° 0 mm 1 mps 720 mmHg 85%

    27 July, Friday

    Time Temperature Precipitation Wind Pressure Humidity
    00:00 +20°C° 0 mm 1 mps 720 mmHg 87%
    01:00 +19°C° 0 mm 1 mps 719 mmHg 89%
    02:00 +19°C° 0 mm 1 mps 719 mmHg 90%
    03:00 +18°C° 0 mm 1 mps 719 mmHg 91%
    04:00 +18°C° 0 mm 1 mps 719 mmHg 92%
    05:00 +19°C° 0 mm 1 mps 719 mmHg 89%
    06:00 +20°C° 0 mm 1 mps 719 mmHg 86%
    07:00 +21°C° 0 mm 1 mps 719 mmHg 83%
    08:00 +23°C° 0 mm 2 mps 719 mmHg 76%
    09:00 +24°C° 0 mm 2 mps 719 mmHg 70%
    10:00 +26°C° 0 mm 3 mps 719 mmHg 63%
    11:00 +27°C° 0 mm 3 mps 719 mmHg 60%
    12:00 +28°C° 0 mm 3 mps 719 mmHg 57%
    13:00 +29°C° 0 mm 3 mps 719 mmHg 54%
    14:00 +29°C° 0 mm 3 mps 719 mmHg 54%
    15:00 +29°C° 0 mm 3 mps 719 mmHg 54%
    16:00 +29°C° 0 mm 3 mps 718 mmHg 54%
    17:00 +28°C° 0 mm 2 mps 718 mmHg 59%
    18:00 +27°C° 0 mm 2 mps 719 mmHg 65%
    19:00 +25°C° 0 mm 1 mps 719 mmHg 71%
    20:00 +24°C° 0 mm 1 mps 719 mmHg 74%
    21:00 +22°C° 0 mm 1 mps 719 mmHg 78%
    22:00 +21°C° 0 mm 1 mps 719 mmHg 82%
    23:00 +20°C° 0 mm 1 mps 719 mmHg 84%
    Show more